Wind_Speed
9 8 8 10 12 14 15 14 13 12 11 9 7 6 6 6 7 8 8 6 3 1 2 5 7 10 11 10 9 9 9 9 8 6 3 2 1 1 2 3 4 4 5 6 6 6 6 6 5 3 3 3 4 4 5 5 5 4 3 3 3 3 3 4 3 3 4 4 5
10 9 9 9 11 14 15 16 15 14 12 9 8 6 6 6 6 7 7 5 3 1 1 3 5 8 10 11 9 7 6 7 7 6 5 3 2 1 1 2 2 2 2 3 4 5 6 6 7 6 5 4 3 4 5 7 8 7 5 4 4 3 4 4 4 4 4 4 4
11 11 10 9 10 12 14 16 17 15 13 10 8 7 6 7 7 6 5 5 4 2 1 2 5 7 9 11 10 7 6 8 8 7 5 3 3 2 2 2 1 1 1 2 2 3 4 5 6 6 6 6 4 4 5 7 8 8 7 6 4 3 3 4 4 4 4 4 3
11 11 10 10 9 10 12 15 16 15 13 10 8 7 6 7 7 6 5 4 4 3 2 2 4 6 8 10 10 9 8 9 9 8 5 3 4 5 5 4 3 2 2 3 3 2 2 3 4 6 6 7 6 5 5 6 6 7 6 6 4 3 2 2 2 3 3 3 2
11 11 10 9 9 9 10 12 14 14 13 12 9 7 7 8 8 7 6 5 4 3 3 3 5 6 8 9 11 11 11 11 10 8 6 5 6 7 7 7 5 4 3 4 4 4 3 1 3 5 6 7 7 5 4 3 2 2 3 3 3 2 1 0 1 2 2 2 2
10 10 10 9 8 8 9 10 10 11 12 12 9 8 8 9 9 8 8 6 5 4 4 5 7 8 9 9 10 11 12 12 12 10 8 8 8 7 7 7 6 6 5 5 5 5 5 4 0 3 5 7 7 7 5 3 1 1 0 0 0 0 1 1 2 3 3 3 2
9 9 10 9 8 8 8 8 8 9 10 10 9 9 10 10 10 10 9 8 7 6 7 8 9 9 10 10 10 10 10 10 11 11 10 9 8 7 6 6 7 8 7 7 7 7 7 6 2 2 4 6 7 6 5 4 2 1 1 1 1 1 2 2 3 4 4 4 3
8 8 9 9 9 7 7 8 8 9 9 10 10 10 11 11 11 11 11 10 10 9 10 11 11 11 11 10 10 9 8 8 9 10 9 8 7 7 7 8 9 9 9 8 7 7 7 6 2 2 4 5 6 6 5 4 2 1 1 2 2 2 2 3 3 4 4 4 4
7 7 7 8 8 7 6 7 9 10 10 11 12 12 12 12 12 12 12 12 12 12 12 13 14 14 13 11 10 9 8 8 7 7 7 7 7 7 7 8 7 8 8 7 7 6 5 4 2 2 3 4 5 5 5 4 3 2 0 1 2 3 3 3 4 4 4 4 4
6 5 5 5 5 5 5 6 8 10 12 13 14 14 14 13 13 13 13 14 14 14 15 16 16 15 14 12 10 9 8 8 7 6 6 6 6 6 6 5 6 6 6 6 6 5 4 3 3 4 4 5 5 5 5 4 4 3 2 1 1 2 2 3 3 3 3 4 4
5 3 2 2 2 3 4 6 8 11 13 14 15 15 15 15 14 14 14 15 16 16 16 16 15 14 13 11 10 9 8 7 7 6 6 6 6 6 6 6 6 6 6 6 6 6 6 6 6 6 6 6 6 5 5 4 4 3 2 2 1 1 1 2 2 2 3 4 5
4 2 0 2 4 5 6 8 9 11 13 14 15 15 15 15 15 15 16 17 17 17 16 15 13 12 11 10 9 8 8 7 7 7 7 7 7 7 7 7 6 6 7 7 7 7 7 8 8 8 7 7 6 5 4 3 3 2 2 2 1 1 2 2 2 3 3 4 5
3 2 3 4 6 8 9 10 11 12 13 14 14 14 15 15 15 16 16 17 17 17 15 14 12 11 10 9 9 9 9 9 9 9 9 8 8 8 7 7 6 6 7 7 7 7 8 8 8 8 7 6 6 5 4 3 2 2 2 2 2 2 3 3 3 3 3 4 5
2 2 4 6 7 9 10 11 11 12 12 13 13 13 14 14 15 15 16 16 16 16 15 13 12 10 10 10 10 10 10 11 11 11 10 10 9 8 8 7 7 7 7 7 7 7 7 7 7 7 6 6 5 5 4 4 3 3 3 3 3 4 4 4 4 4 5 5 6
3 4 5 7 8 9 10 11 11 11 12 12 12 12 13 14 14 14 15 15 15 14 13 12 11 11 10 10 10 11 11 11 11 11 11 11 10 9 9 8 8 7 7 8 8 7 7 7 7 6 6 5 5 5 5 4 4 4 4 4 4 4 5 5 5 6 6 7 7
5 5 6 8 9 10 10 11 11 11 11 11 11 12 13 13 13 13 13 13 13 12 11 11 11 12 11 11 11 11 11 11 11 11 11 12 11 11 10 9 9 8 8 8 8 8 8 8 7 7 6 6 6 5 5 5 5 5 5 5 5 5 6 6 7 7 8 8 9
6 6 7 8 9 10 10 11 11 11 11 12 12 12 12 13 13 12 12 12 11 11 11 11 12 12 12 12 11 11 10 10 11 11 12 12 12 12 11 11 10 9 9 8 8 8 8 8 8 7 7 7 7 7 6 6 6 6 6 6 6 7 7 8 8 9 10 10 10
9 8 8 9 9 10 10 11 11 11 12 12 12 12 12 12 12 12 11 11 11 11 12 12 12 12 12 12 12 11 11 11 12 12 12 13 13 13 13 12 11 10 9 9 9 9 9 9 8 8 8 8 8 8 8 7 7 7 8 8 8 9 9 10 10 11 11 11 12
10 9 9 9 10 10 10 11 11 11 11 12 12 12 12 12 12 12 12 11 12 12 13 13 13 13 13 13 13 13 13 13 13 13 13 13 13 13 13 13 12 11 10 10 10 9 9 9 9 9 9 9 9 9 9 9 9 9 10 10 10 11 11 12 12 12 12 12 12
11 10 10 10 10 10 11 11 11 11 11 12 12 12 12 12 12 12 12 12 12 12 12 13 13 13 13 14 14 14 14 14 14 15 15 14 14 13 13 13 13 12 11 11 10 10 10 10 10 10 10 11 11 11 11 11 11 12 12 12 13 13 13 13 13 13 13 13 13
10 10 10 10 10 11 11 11 12 12 12 12 12 13 13 12 12 12 12 12 11 11 12 12 13 13 13 14 14 15 15 15 15 15 15 15 15 14 13 12 12 12 12 11 11 11 12 12 12 13 13 13 14 14 14 14 14 15 15 15 16 16 16 16 15 15 15 15 14
10 9 10 10 11 11 12 12 12 13 13 13 13 13 13 13 13 12 12 11 11 11 12 12 12 12 13 13 14 14 15 15 15 15 15 15 15 14 13 12 12 12 12 12 12 12 13 13 14 14 15 15 16 16 16 16 17 18 18 19 19 19 18 18 17 17 16 16 15
8 8 9 10 10 11 11 12 13 13 14 14 14 14 13 13 13 12 11 11 11 11 11 12 12 12 12 12 12 13 14 14 14 14 14 14 14 14 13 12 12 12 12 12 12 12 13 14 14 15 15 16 17 17 17 17 18 19 20 20 20 20 19 18 18 17 16 15 14
7 8 8 9 10 10 11 12 12 13 13 13 13 13 13 13 12 12 11 11 11 11 11 11 11 12 12 12 11 12 12 13 13 13 13 13 13 13 13 13 13 12 12 10 10 10 11 12 13 14 14 15 16 16 17 17 18 19 19 20 20 19 19 18 17 17 17 16 16
7 7 8 9 9 10 10 11 11 12 12 12 12 12 12 12 12 12 12 12 12 12 12 12 12 12 12 12 12 12 12 12 13 13 13 13 13 13 13 13 14 13 12 10 9 8 8 8 10 11 12 12 14 15 15 16 16 17 18 18 18 19 19 18 17 17 17 17 17
7 8 8 9 9 9 9 10 10 11 11 11 11 12 12 12 12 12 13 13 13 13 13 13 13 13 13 13 13 13 13 13 13 13 14 14 14 14 14 15 15 14 13 11 8 7 7 7 7 8 9 10 12 13 15 16 16 16 16 16 17 17 17 18 17 16 16 16 16
7 8 8 9 9 9 9 9 9 10 10 10 10 11 11 11 10 10 10 11 11 11 12 12 13 13 14 14 15 16 16 16 15 15 15 16 16 16 17 16 16 15 14 12 9 8 7 7 7 8 8 10 11 13 15 16 16 16 16 15 15 15 16 17 17 16 16 15 16
7 7 8 8 9 9 9 8 9 9 9 9 9 9 9 8 8 8 8 8 9 9 10 12 12 12 13 15 16 17 17 17 17 17 17 17 18 18 18 18 17 16 14 12 10 8 7 7 7 8 9 11 12 14 15 16 16 16 15 15 15 15 15 16 16 16 17 17 17
6 6 7 7 8 8 8 8 9 9 9 9 9 8 8 8 8 8 8 9 9 10 11 12 11 12 14 16 16 17 17 18 18 18 18 19 19 19 19 18 17 16 15 13 11 9 8 7 8 9 10 12 14 15 16 16 16 16 15 15 15 15 15 16 16 17 17 18 18
6 6 7 7 8 8 9 9 9 10 10 10 10 10 10 10 10 11 11 11 12 12 12 12 13 14 15 16 17 17 18 18 18 18 19 19 19 19 18 18 17 16 14 13 12 10 9 8 9 10 11 12 14 15 15 15 15 15 16 16 15 16 16 16 17 18 18 18 19
7 7 7 8 9 10 10 10 10 10 11 11 11 11 11 12 12 13 13 13 13 13 13 13 14 16 16 17 17 18 18 18 18 18 18 19 19 18 18 17 16 15 14 13 12 11 10 9 9 10 11 12 13 14 14 15 15 16 16 16 17 17 17 17 18 18 18 18 18
7 7 8 9 10 11 11 11 11 11 11 11 11 11 12 13 13 14 14 14 14 14 14 14 15 16 17 17 17 18 18 18 18 18 18 18 18 18 17 16 16 15 13 12 11 11 10 9 9 9 10 11 12 13 14 15 16 17 17 18 18 17 17 17 17 17 16 16 15
8 8 9 10 11 11 11 11 11 10 10 11 11 12 12 13 13 14 14 14 14 14 15 15 16 17 17 17 18 18 18 17 17 17 17 17 17 17 17 16 15 14 13 12 11 11 10 9 9 9 10 11 12 13 14 15 16 17 18 18 18 17 17 16 15 14 13 13 12
9 10 10 10 11 11 10 10 10 10 10 11 11 12 13 13 14 14 14 14 14 14 15 16 16 17 17 17 17 17 17 16 16 16 16 16 16 16 16 15 14 13 12 11 11 10 10 9 9 9 10 11 12 13 14 15 16 17 17 17 16 16 15 14 13 12 11 10 9
9 10 11 11 10 10 10 10 9 9 10 11 12 13 13 14 14 15 15 14 15 15 16 16 16 16 16 16 16 15 15 15 15 14 14 14 15 15 15 14 13 12 11 11 10 9 9 9 9 9 10 11 12 13 14 15 15 16 16 15 15 14 13 13 12 11 10 9 8
10 11 11 11 10 10 10 9 10 10 11 12 13 13 14 14 15 15 15 15 15 16 16 16 16 16 16 16 15 14 14 14 14 13 13 13 14 14 14 14 12 11 11 10 9 8 8 7 8 9 9 10 11 12 13 13 14 14 14 14 14 13 13 12 12 11 11 10 9
10 11 11 11 11 10 10 10 10 11 12 12 13 13 14 14 15 15 15 15 16 16 17 17 16 16 16 15 15 14 14 13 13 13 13 13 13 13 13 13 12 11 10 9 8 7 6 6 7 7 8 9 10 11 12 12 13 13 13 13 13 13 13 12 12 12 11 11 10
9 11 11 11 11 11 10 10 11 11 12 13 13 13 14 14 15 15 15 15 16 16 17 16 16 16 16 15 15 15 14 13 13 13 13 13 12 12 12 12 11 10 9 8 7 6 5 5 5 6 6 7 9 10 11 12 12 12 12 13 13 13 12 12 12 11 11 10 9
8 9 10 11 11 11 11 11 11 12 12 13 13 14 14 15 15 15 15 15 15 16 16 16 16 16 15 15 15 15 15 14 14 13 13 13 12 11 11 11 11 9 9 8 7 7 6 5 5 4 5 6 8 9 10 11 12 12 12 12 12 12 12 11 11 11 10 9 8
6 7 8 10 11 11 11 11 11 12 12 13 14 14 14 15 15 15 15 14 15 15 15 16 16 15 15 15 15 15 15 14 14 13 13 12 12 11 11 11 10 9 8 8 7 7 6 5 4 4 4 5 7 8 10 11 12 12 12 12 12 12 11 10 9 9 9 8 7
4 5 6 8 9 10 10 11 11 11 12 13 13 14 14 14 14 14 14 14 14 14 14 15 15 14 14 14 14 15 15 14 13 12 12 11 11 11 10 10 9 9 8 8 7 7 6 5 5 4 4 4 6 8 9 10 12 12 12 12 11 11 10 9 8 7 7 7 7
Wind_Direction
313 301 283 268 261 261 264 269 272 275 280 290 301 307 310 315 319 326 332 339 340 296 184 175 169 166 163 161 161 161 159 157 153 151 151 147 109 88 96 102 105 106 105 103 103 106 114 128 141 147 148 150 159 173 182 178 169 161 148 136 128 128 127 119 106 102 114 137 168
313 304 291 275 262 258 258 262 266 270 275 281 288 294 295 294 298 309 319 327 330 325 198 180 178 173 166 159 159 165 172 171 164 161 161 160 158 146 128 124 124 118 101 91 93 98 106 121 135 141 141 142 147 175 185 179 173 172 172 164 150 141 134 127 118 112 115 130 157
309 303 295 283 270 262 258 257 260 265 271 274 278 279 278 273 276 287 302 315 322 316 279 201 189 182 170 159 157 167 180 180 171 168 172 174 181 180 173 170 189 253 315 350 33 77 100 117 133 138 133 124 114 130 156 162 165 167 169 166 161 151 139 132 129 128 131 134 149
307 303 298 290 280 269 261 257 256 260 265 269 272 270 264 260 263 267 277 296 303 298 271 234 202 187 172 161 161 171 183 180 169 168 178 199 204 194 183 183 201 241 286 310 324 352 63 106 126 132 129 121 114 120 136 146 153 156 157 159 161 159 147 135 140 153 159 157 161
305 303 299 292 282 271 263 257 255 254 256 259 263 263 258 253 253 253 256 262 267 267 251 227 203 185 170 162 162 169 176 174 168 172 189 208 204 190 179 178 191 216 250 278 294 303 317 36 115 125 128 128 129 131 136 143 146 147 145 146 149 157 167 212 218 224 225 224 228
305 303 301 295 284 272 262 255 250 246 245 247 250 251 249 247 244 242 240 239 238 237 228 213 198 183 171 163 161 162 163 162 164 175 192 200 196 185 177 182 198 216 234 249 262 273 283 289 263 118 123 126 129 133 137 144 165 220 268 24 167 282 301 301 288 271 257 250 250
303 300 298 297 289 274 258 246 237 229 227 227 231 235 239 240 237 233 228 224 219 214 211 207 200 189 178 170 166 163 159 154 161 173 186 193 194 194 200 212 222 230 235 239 245 252 261 269 271 103 107 113 116 122 128 131 144 198 267 271 273 273 273 268 275 267 253 243 242
300 295 294 294 291 277 253 231 217 207 202 202 209 220 228 231 229 224 220 213 207 203 202 204 202 196 188 181 176 174 170 166 169 178 188 199 210 220 228 232 233 233 233 232 233 238 244 252 246 102 96 98 101 104 106 106 109 112 259 251 242 242 242 232 238 235 231 231 234
303 293 288 289 289 279 254 220 203 193 190 192 199 206 214 219 219 215 210 203 199 198 199 201 201 199 195 191 187 186 187 189 192 198 208 220 231 236 236 231 224 220 217 215 214 216 222 225 201 130 100 93 92 94 93 90 87 81 84 224 216 217 220 219 214 212 217 226 232
314 299 286 282 279 272 249 213 193 188 188 191 192 195 201 206 208 206 200 195 193 192 194 196 198 198 196 195 193 194 198 204 211 219 229 234 235 228 214 199 187 182 182 183 181 178 174 162 140 122 108 98 93 94 94 91 83 77 82 124 177 195 201 206 210 216 225 235 241
325 314 293 262 213 211 209 196 185 184 187 188 187 188 190 194 197 196 193 189 185 184 185 189 191 192 191 192 192 195 201 208 215 221 223 220 213 196 177 164 156 149 145 144 140 134 127 120 112 107 103 99 95 93 91 89 81 77 83 101 115 162 191 203 226 241 245 249 250
341 348 93 144 146 161 176 180 180 181 183 184 184 183 183 185 187 187 185 182 178 176 176 179 181 181 182 183 184 188 193 197 202 202 197 189 179 169 158 150 143 135 127 120 115 111 108 104 100 98 98 98 98 97 95 91 84 85 98 114 126 146 172 194 217 232 241 246 243
356 47 110 131 138 148 159 168 173 175 175 176 177 178 178 179 181 180 179 176 173 171 169 169 169 169 170 170 173 175 178 180 182 180 174 166 160 154 148 141 134 127 119 110 104 103 103 100 98 96 97 101 103 105 108 111 111 119 130 141 147 153 161 179 196 205 212 216 216
27 88 112 124 133 139 146 154 161 164 166 167 169 172 173 175 177 177 176 174 171 168 165 163 162 161 162 162 164 165 166 167 168 165 161 156 151 145 140 136 131 125 119 111 106 105 106 106 104 102 103 106 110 115 118 124 131 139 145 149 151 154 159 170 180 186 188 189 189
67 98 113 123 128 132 135 140 147 154 159 159 163 166 169 171 174 176 176 174 171 168 165 161 158 157 158 159 160 159 159 158 158 157 154 149 145 141 137 134 131 127 123 119 115 113 111 112 112 112 113 115 119 123 126 130 133 138 145 150 154 158 161 167 168 171 174 175 171
78 96 109 116 123 126 129 132 139 147 152 155 159 162 164 166 171 173 173 171 170 167 164 159 155 154 154 154 154 154 153 152 152 150 148 144 141 138 136 134 132 130 128 126 124 122 120 118 118 119 120 123 126 129 132 135 137 141 146 151 155 157 158 159 161 161 163 163 158
79 92 103 110 116 120 123 127 133 140 145 151 155 158 159 162 164 165 165 163 162 159 156 152 151 149 148 147 148 148 148 147 146 144 141 138 136 136 136 134 132 130 129 130 129 128 127 125 123 124 126 129 131 133 137 140 142 144 146 149 150 150 151 151 152 151 150 149 144
76 87 99 105 108 112 117 123 128 132 137 142 146 150 153 155 154 153 151 150 149 148 146 144 144 143 143 142 143 144 145 144 141 138 135 133 132 132 133 132 130 129 129 129 129 129 129 129 129 129 130 132 134 136 138 140 141 143 145 146 146 145 145 144 143 141 139 136 130
73 83 92 99 102 107 112 117 122 125 129 133 137 140 142 143 142 139 137 136 137 137 138 137 137 138 138 139 140 140 141 140 138 135 132 130 128 127 127 126 126 125 125 127 128 129 131 132 133 133 135 135 136 137 138 139 139 140 142 141 141 140 139 137 136 134 132 127 122
71 78 86 94 101 105 108 112 116 120 122 125 127 128 128 129 129 127 125 125 127 130 131 131 132 133 134 134 134 134 135 135 134 133 131 129 126 123 121 119 119 119 120 122 126 130 134 135 137 137 137 137 137 137 137 138 137 137 137 135 133 132 130 129 127 124 121 118 115
71 77 85 93 100 104 108 110 114 116 118 119 120 119 119 119 119 118 118 120 122 124 125 125 126 127 129 130 129 129 129 130 130 130 129 127 124 120 116 114 112 112 114 117 123 129 134 136 138 138 138 138 137 137 137 137 135 134 131 129 126 123 121 118 117 115 113 111 112
72 80 87 93 99 104 107 110 113 114 116 116 116 116 115 114 113 113 115 117 119 119 119 119 120 121 123 125 125 125 125 126 125 124 124 122 119 116 113 109 107 107 110 114 121 126 131 133 135 136 136 135 134 134 134 133 132 130 127 124 122 119 117 115 113 112 112 112 113
75 82 89 93 98 102 105 108 110 112 112 112 112 111 111 110 110 111 113 114 114 113 113 113 114 115 116 118 119 121 122 121 119 117 116 115 114 113 111 107 104 103 105 111 119 125 129 130 131 131 131 130 129 129 128 128 128 128 126 125 123 121 119 117 115 114 113 112 112
75 82 87 91 96 100 103 105 107 108 109 109 109 108 108 108 108 109 109 108 107 106 105 106 106 108 109 111 112 113 114 114 112 111 109 108 107 107 105 103 100 98 99 103 113 122 126 127 127 126 124 123 123 123 123 125 127 128 128 128 126 124 122 120 118 115 112 108 105
74 80 85 90 94 98 102 104 106 107 107 108 108 108 107 107 106 105 104 102 100 99 99 99 100 101 102 103 103 102 101 101 101 101 101 99 98 96 96 94 93 91 91 92 98 107 114 118 118 118 117 117 118 119 122 125 128 131 131 131 130 128 125 122 120 118 115 111 107
74 79 84 89 93 96 98 101 102 103 104 104 104 103 102 101 100 98 96 94 93 92 91 91 91 92 92 93 92 91 89 89 89 90 90 89 87 85 84 84 84 83 82 81 81 85 92 99 105 110 113 117 121 124 127 130 133 134 135 134 134 132 128 125 123 121 120 118 114
72 77 82 86 87 89 90 92 94 95 96 96 95 94 92 91 90 87 84 82 81 80 79 79 80 82 82 82 82 82 82 83 83 83 82 81 80 78 76 76 76 76 76 75 73 75 82 94 104 112 120 126 130 133 134 135 137 138 138 137 136 135 132 129 126 124 123 122 120
73 76 78 80 81 81 83 85 87 89 89 88 87 87 85 84 82 79 76 74 73 73 73 73 74 75 75 76 78 79 80 81 81 81 80 79 77 76 74 73 73 73 74 74 75 79 86 101 114 124 131 137 140 141 141 140 140 140 139 138 137 136 134 131 130 128 126 125 124
80 80 79 79 80 83 85 89 90 91 92 93 93 93 93 93 91 90 89 88 86 84 83 82 81 80 80 81 82 82 83 83 83 82 82 80 79 78 77 76 75 75 76 79 83 88 97 109 123 133 140 145 147 146 145 144 143 141 140 138 136 135 133 132 131 130 129 128 127
91 88 86 87 90 94 97 99 101 103 104 105 106 106 105 104 102 101 100 98 95 94 93 93 93 91 89 89 89 88 88 87 86 86 86 85 84 83 82 81 80 81 82 86 91 96 104 115 127 138 145 149 149 148 147 145 142 139 137 135 134 134 132 132 131 131 131 130 129
100 97 97 100 103 105 107 109 111 113 113 114 114 112 109 107 105 103 102 101 99 100 101 101 99 97 96 95 94 93 92 91 90 89 88 88 87 87 86 85 85 86 88 91 96 100 107 117 129 140 147 150 149 147 144 141 138 134 133 131 131 130 130 130 130 130 131 132 131
109 108 109 110 111 111 113 116 117 118 118 117 116 113 109 107 106 105 104 104 105 106 106 105 103 102 101 100 99 97 96 95 93 92 91 91 90 90 89 88 87 88 90 93 97 102 107 114 125 136 142 145 144 141 138 135 132 129 128 127 127 127 128 128 128 129 131 132 132
117 117 117 117 116 116 117 119 120 120 119 118 114 112 110 109 110 109 109 110 111 111 110 109 107 106 105 104 103 102 100 98 97 95 94 93 92 91 89 87 86 86 88 91 95 99 103 110 117 126 132 135 136 134 132 130 128 126 125 125 125 126 126 126 127 128 129 130 131
123 124 123 122 121 121 121 121 122 121 119 116 114 113 113 113 113 114 114 115 116 115 113 112 111 109 108 107 106 105 103 101 100 98 97 96 93 91 88 86 84 83 84 87 90 95 99 105 111 118 124 128 129 129 128 127 126 126 125 124 124 124 124 123 123 123 123 123 124
131 131 129 128 127 126 126 125 125 123 121 118 116 116 117 118 118 118 118 120 120 118 116 114 113 113 111 110 109 108 107 105 104 102 100 98 96 93 89 86 83 81 81 83 86 92 98 104 110 116 121 125 127 128 128 127 127 126 126 125 123 122 121 119 117 114 113 111 110
138 137 136 134 134 133 132 130 129 127 125 123 122 122 122 122 122 123 123 124 123 121 118 117 117 116 115 114 112 111 110 109 108 107 105 102 99 96 93 90 86 82 79 81 85 92 100 108 113 118 123 126 129 130 131 130 129 129 128 126 123 121 118 116 114 111 107 103 99
143 143 143 142 141 140 140 138 136 133 130 129 129 128 128 127 127 127 129 130 127 124 122 122 121 119 118 117 115 114 113 113 112 110 108 105 103 100 97 94 89 84 81 82 85 92 100 109 118 124 129 133 134 135 135 134 132 131 129 126 123 121 119 117 113 109 104 99 95
146 149 149 148 148 148 147 145 142 139 137 135 135 135 135 134 133 133 134 134 132 129 126 125 123 122 122 121 119 118 117 116 115 112 109 106 104 101 98 94 90 86 84 84 86 90 96 106 119 131 139 142 144 143 142 140 137 135 131 128 124 122 121 119 116 112 106 100 94
147 152 155 154 154 154 153 151 148 144 142 141 140 141 141 140 138 138 138 139 137 134 131 128 126 126 127 127 125 122 120 119 117 114 110 107 103 100 97 94 91 88 86 87 89 90 93 101 116 135 150 156 157 155 152 147 143 139 136 132 129 127 125 123 121 117 113 106 99
143 155 161 162 161 160 158 156 152 149 146 145 145 145 145 144 143 142 143 142 141 139 136 132 130 130 131 131 129 125 123 120 118 115 112 108 104 100 97 95 93 91 90 89 90 93 94 96 108 129 151 164 168 165 161 156 150 145 141 139 137 134 132 130 129 126 120 113 103
144 156 166 170 170 168 165 160 155 152 150 150 149 149 149 148 146 146 146 144 142 140 138 135 133 133 133 132 130 127 124 120 118 116 113 110 106 102 100 98 97 95 93 91 92 94 95 91 96 113 139 162 171 172 169 164 157 151 147 145 145 143 140 139 138 134 126 117 106
Height
756 756 756 756 755 755 756 756 757 757 757 758 759 760 761 761 762 762 762 762 762 763 763 762 762 761 760 761 762 762 763 764 766 767 768 768 768 768 768 768 768 769 769 770 770 771 771 772 773 774 774 775 775 776 777 777 778 779 780 780 781 781 781 781 782 782 783 784 785
756 755 755 755 755 755 755 755 755 756 757 758 759 760 760 761 761 762 762 762 762 762 762 762 762 762 761 760 761 762 763 765 766 767 768 768 768 768 768 768 768 769 770 770 770 771 771 771 772 773 774 775 775 776 777 777 778 779 779 780 780 781 781 782 782 783 783 784 785
756 755 755 754 754 754 754 754 754 755 756 757 758 759 760 760 761 761 762 762 762 762 762 762 762 762 762 761 761 762 763 765 766 767 767 768 768 767 767 768 769 769 770 770 770 770 771 771 772 772 773 774 775 776 777 777 777 778 779 779 780 781 781 782 782 783 784 784 785
756 755 754 754 754 754 754 754 754 755 755 756 757 758 759 760 761 761 761 762 762 762 762 762 762 762 762 762 761 762 763 764 765 766 767 767 767 767 768 768 769 770 770 770 770 770 770 771 772 772 773 774 775 776 777 777 777 778 779 779 780 781 781 782 783 783 784 784 785
755 755 754 754 754 754 754 754 754 754 755 756 756 757 758 759 760 761 761 761 762 762 762 763 763 763 762 762 762 762 763 764 764 766 767 767 767 768 768 769 769 770 771 771 770 770 770 771 772 772 773 774 775 776 776 777 777 778 779 779 780 781 782 782 783 783 784 784 784
755 755 754 754 753 753 753 753 754 754 755 756 756 757 758 759 760 761 761 761 762 762 763 763 763 763 763 762 762 762 762 763 764 765 766 767 768 768 768 769 770 770 771 771 771 770 770 770 771 772 773 773 774 775 776 777 777 778 779 779 780 781 782 782 783 783 783 784 784
755 754 754 753 753 753 753 753 754 754 755 756 756 757 758 759 760 761 761 761 762 762 763 763 764 764 763 763 763 763 763 763 764 765 766 767 768 768 769 770 770 771 771 771 771 771 771 771 771 772 772 773 773 774 775 776 777 777 778 779 780 781 781 782 782 783 783 784 784
754 754 754 753 753 752 752 753 753 754 755 756 756 757 758 759 760 761 761 761 762 762 763 764 764 764 764 763 763 763 763 763 764 765 766 767 768 769 769 770 770 771 771 771 771 771 771 771 771 771 772 772 773 773 774 775 776 777 777 778 779 780 781 781 782 782 783 783 784
753 753 753 753 752 752 752 752 753 754 755 756 756 757 758 760 760 761 761 761 762 762 763 763 764 764 764 763 763 763 763 764 765 766 767 767 768 769 769 770 770 771 771 771 771 771 771 771 771 771 771 772 772 773 774 775 776 776 777 778 779 780 780 781 782 782 783 783 784
753 752 752 752 752 752 752 752 753 754 755 756 757 757 759 760 760 761 761 761 762 762 763 763 764 764 763 763 763 763 763 764 765 766 767 767 768 769 769 770 770 771 771 771 771 771 770 770 770 771 771 772 772 773 774 775 775 776 777 777 778 779 780 781 782 782 783 784 784
753 752 752 752 752 752 752 753 753 754 755 756 757 757 758 759 760 761 762 762 762 762 762 763 763 763 763 762 762 762 763 764 765 766 766 767 768 769 769 770 771 771 770 770 770 770 770 770 770 771 771 772 772 773 774 774 775 776 777 777 778 779 780 781 782 783 783 784 785
753 752 751 751 751 752 752 753 753 754 755 756 756 757 758 759 760 761 762 762 762 762 762 763 763 763 762 762 762 762 763 764 765 765 766 767 768 768 769 770 771 771 770 770 770 770 770 770 770 771 772 772 773 773 774 775 775 776 777 777 778 779 780 781 782 783 783 784 785
753 752 752 751 751 751 752 752 753 754 755 756 756 757 758 759 760 761 762 762 762 762 762 762 762 762 762 762 762 762 763 763 764 765 766 767 767 768 769 770 771 771 771 770 770 770 770 770 771 771 772 773 773 774 775 775 776 776 777 777 778 779 780 781 782 782 783 784 785
753 752 752 751 751 751 752 752 753 754 754 755 756 757 757 758 759 760 761 761 761 761 761 761 762 762 762 762 762 763 763 764 764 765 766 767 767 768 769 770 771 771 771 771 770 770 770 771 771 772 772 773 774 774 775 775 776 776 777 777 778 779 780 780 781 782 783 784 785
754 753 752 752 752 751 752 752 752 753 754 754 755 756 757 757 758 759 759 760 760 760 760 761 761 762 762 763 763 763 764 764 765 765 766 766 767 768 769 770 771 771 771 771 771 771 771 771 772 772 773 773 774 775 775 776 776 777 777 778 778 779 780 781 781 782 783 784 785
754 753 753 752 752 752 752 752 752 753 753 754 755 755 756 757 757 758 758 759 759 759 760 760 760 761 762 763 764 764 765 765 766 766 766 766 767 768 769 770 771 772 772 772 772 772 772 772 772 772 773 773 774 775 775 776 777 777 778 778 779 780 780 781 782 782 783 784 785
755 754 754 753 753 753 753 753 753 753 754 754 755 755 756 756 757 757 758 758 759 759 760 760 761 762 762 763 764 765 766 766 767 767 767 767 767 768 769 770 771 772 772 772 772 772 772 772 773 773 773 774 774 775 776 777 777 778 778 779 780 780 781 782 782 783 784 785 785
755 755 754 754 754 754 754 754 754 754 754 755 755 755 756 757 757 757 758 759 759 760 760 761 762 762 763 764 765 766 766 767 767 768 768 768 768 769 769 770 771 772 772 773 773 773 773 773 773 773 774 774 775 776 776 777 778 778 779 780 781 781 782 782 783 784 784 785 786
756 756 755 755 755 755 755 755 755 755 755 756 756 756 757 757 758 758 759 760 760 761 762 762 763 763 764 765 765 766 767 767 768 768 769 769 769 769 770 770 771 772 772 773 773 773 774 774 774 774 774 775 775 776 777 778 778 779 780 781 782 782 783 784 784 785 785 786 786
757 757 756 756 756 756 756 756 756 757 757 757 757 758 758 759 759 760 760 761 762 762 763 763 764 764 765 766 766 767 768 768 769 769 769 769 770 770 770 770 770 771 772 772 773 774 774 774 774 774 775 775 776 777 777 778 779 780 781 782 783 783 784 785 786 786 786 787 787
757 757 757 757 757 757 757 757 757 758 758 759 759 760 760 761 761 762 762 763 763 763 764 764 765 765 766 767 767 767 768 769 769 770 770 770 770 770 770 770 770 771 771 772 773 774 774 775 775 775 775 776 776 777 777 778 779 780 782 782 783 784 785 786 787 787 787 788 788
758 758 758 758 758 758 758 758 758 759 759 760 760 761 762 762 762 763 764 764 765 765 765 766 766 766 767 767 768 768 769 769 770 770 770 770 770 770 770 770 770 770 771 772 773 774 775 775 775 776 776 776 776 777 777 778 779 780 781 782 784 785 786 787 787 787 788 789 789
760 759 759 759 759 759 759 759 759 759 760 761 761 762 762 763 764 764 765 765 766 766 766 767 767 767 768 768 768 769 769 770 770 770 770 770 770 770 770 770 769 770 771 772 773 774 775 776 776 776 776 776 775 776 776 777 778 779 781 782 783 785 786 787 787 788 788 789 790
760 760 760 760 760 760 760 760 760 760 761 761 762 762 763 764 764 765 766 766 766 767 767 767 768 768 768 769 769 769 769 770 770 770 770 771 771 770 770 769 769 769 770 772 774 775 776 776 776 775 775 775 774 775 775 776 778 779 781 782 783 785 786 787 787 788 789 789 790
761 761 761 761 760 760 760 761 761 761 761 762 762 763 763 764 765 765 766 766 767 767 767 768 768 768 769 769 769 769 769 769 769 770 770 770 770 770 769 768 768 768 769 772 773 775 775 775 775 774 774 774 774 775 776 777 779 780 782 783 784 785 786 787 787 788 789 789 790
762 762 761 761 761 761 761 761 762 762 762 762 763 763 764 765 765 766 766 767 767 767 767 767 768 768 768 768 768 768 768 768 768 769 769 768 768 768 768 767 767 767 769 771 772 774 774 774 774 774 774 774 775 776 777 779 781 782 783 784 785 785 786 787 787 788 789 790 790
762 762 762 762 762 762 762 762 762 762 763 763 763 764 764 765 765 765 766 766 766 766 766 767 767 767 767 767 767 767 767 767 767 767 767 767 767 767 767 767 767 767 768 770 772 773 774 774 774 774 775 776 777 778 780 781 782 783 784 785 786 786 787 787 788 788 789 790 791
763 763 763 762 762 762 762 763 763 763 763 763 764 764 764 764 765 765 765 765 765 766 766 766 766 766 766 766 767 767 767 767 767 767 767 767 767 767 767 768 768 768 769 770 772 773 775 775 776 777 777 778 780 781 782 783 784 785 785 786 787 787 787 787 788 789 790 791 792
764 764 763 763 763 763 763 764 764 764 764 764 764 765 765 765 765 766 766 766 766 766 766 767 767 767 767 767 767 768 768 768 768 768 768 768 768 769 769 770 770 770 771 772 774 775 777 777 778 779 780 781 782 783 783 784 785 785 786 787 787 787 788 788 789 790 790 791 792
764 764 764 764 764 764 765 765 765 765 765 766 766 766 766 766 766 767 767 767 767 767 767 767 767 767 768 768 769 769 769 770 770 770 770 770 771 771 772 772 772 773 774 775 777 778 779 779 780 781 782 783 783 784 784 785 785 786 786 787 787 788 788 789 790 790 791 792 792
765 765 765 765 765 766 766 766 766 766 767 767 767 767 767 767 767 768 768 768 768 768 769 769 769 769 769 770 770 771 771 772 772 772 772 772 773 773 774 774 775 776 777 778 779 780 781 781 782 782 783 784 784 785 785 785 786 786 787 787 788 788 789 790 790 791 792 792 793
766 766 766 766 766 767 767 767 767 767 767 768 768 768 768 768 768 769 769 769 770 770 770 770 770 771 771 772 772 772 773 773 773 774 774 774 775 776 776 777 777 778 779 780 781 781 782 782 783 783 784 784 785 785 785 786 786 787 787 788 789 789 790 791 791 792 792 793 794
767 767 767 767 767 767 767 768 768 768 768 768 769 769 769 769 770 770 770 771 771 771 771 772 772 772 772 773 773 774 774 775 775 775 776 776 777 777 778 778 779 780 781 782 782 782 783 783 783 784 784 785 785 786 786 786 787 787 788 789 789 790 791 791 792 793 793 794 794
767 767 767 768 768 768 768 769 769 769 769 769 770 770 770 771 771 771 772 772 772 772 772 773 773 773 774 774 774 775 775 776 776 777 777 777 778 778 779 780 781 781 782 782 783 783 783 783 784 784 785 785 786 786 787 787 787 788 789 789 790 791 791 792 792 793 794 794 795
768 768 768 769 769 769 769 770 770 770 770 770 771 771 772 772 772 772 773 773 773 774 774 774 775 775 775 776 776 776 777 777 777 778 778 779 779 779 780 781 782 782 782 783 783 783 784 784 784 785 785 786 786 787 787 787 788 789 789 790 791 791 792 792 793 794 794 795 795
769 769 769 769 770 770 770 770 771 771 771 771 772 772 772 773 773 774 774 775 775 775 775 776 776 776 777 777 777 778 778 778 779 779 780 780 780 780 781 782 782 783 783 784 784 784 784 784 785 785 786 786 787 787 787 788 789 789 790 791 791 792 792 793 793 794 795 795 796
770 770 770 770 771 771 771 771 772 772 772 772 773 773 773 774 774 775 775 776 776 776 777 777 777 777 778 778 779 779 780 780 780 781 781 781 782 782 782 783 783 784 784 785 785 785 785 785 786 786 787 787 787 788 788 789 789 790 791 791 792 792 793 793 794 795 795 796 796
771 771 771 771 771 772 772 772 772 772 773 773 773 774 774 775 775 776 777 777 777 777 777 778 778 779 779 780 780 781 781 782 782 782 782 783 783 783 784 784 785 785 785 786 786 786 786 787 787 787 787 788 788 789 789 789 790 791 791 792 792 793 793 794 794 795 795 796 797
771 771 772 772 772 772 772 773 773 773 773 774 774 775 775 776 776 777 777 777 778 778 778 779 779 780 780 781 781 782 782 783 783 783 784 784 785 785 785 785 786 786 787 787 787 787 787 787 788 788 788 789 789 789 790 790 790 791 792 792 792 793 794 794 795 795 796 796 797
772 772 772 772 772 772 773 773 773 774 774 774 775 775 776 776 777 777 778 778 779 779 779 780 780 781 782 782 782 782 783 784 784 785 785 785 786 786 786 787 787 787 787 788 788 788 788 788 788 789 789 789 789 790 790 790 791 791 792 792 793 793 794 794 795 795 796 796 797
772 772 772 773 773 773 773 773 774 774 775 775 775 776 776 777 777 778 778 779 779 780 780 781 781 782 782 783 783 783 784 784 785 786 786 786 787 787 787 787 788 788 788 788 789 789 789 789 789 789 790 790 790 790 791 791 791 792 792 793 793 793 794 795 795 796 796 797 797